User: anonymous   Login
Location: Stoke Bliss
(52.2667°N, 2.5167°W)
Time: 12:35:43
(UTC+00:00)
Language:

Cosmos 2154 Rocket - Orbit

View from above orbital plane
View from above orbital plane
View from above satellite
View from above satellite

Ground track
Ground track

The orbit data is extracted from the following two-line orbital elements,

1 21667U 91059B   21138.20593184  .00000014  00000-0 -11934-5 0  9992
2 21667  82.9085  23.4570 0019883 222.4790 250.1305 13.75105376492360
Epoch (UTC): 18 May 2021 04:56:32
Eccentricity: 0.0019883
inclination: 82.9085°
perigee height: 966 km
apogee height: 996 km
right ascension of ascending node: 23.4570°
argument of perigee: 222.4790°
revolutions per day: 13.75105376
mean anomaly at epoch: 250.1305°
orbit number at epoch: 49236

The dashed part of the orbit path shows where the satellite is in the earth's shadow,  

DLR